This is the latest recevied weather packets stored in our database for station/object AA4OM-2. If no packets are shown the sender has not sent any weather packets the latest 1 day(s).
| Time | Temp. | Humidity | Pressure | Rain* | Wind** | Luminosity | Snow |
|---|---|---|---|---|---|---|---|
| 1778087881 | 12.22° C | 86% | 1015.4 hPa | 0 mm | - | 161 W/m² | - |
| 1778086670 | 11.67° C | 87% | 1015.3 hPa | 0 mm | - | 237 W/m² | - |
| 1778086367 | 11.67° C | 86% | 1015.1 hPa | 0 mm | - | 205 W/m² | - |
| 1778086064 | 11.67° C | 87% | 1015.2 hPa | 0 mm | - | 152 W/m² | - |
| 1778085761 | 11.67° C | 87% | 1015.1 hPa | 0 mm | - | 193 W/m² | - |
| 1778084244 | 11.67° C | 87% | 1015.2 hPa | 0 mm | - | 188 W/m² | - |
| 1778083941 | 11.67° C | 88% | 1015.4 hPa | 0 mm | - | 191 W/m² | - |
| 1778080992 | 11.11° C | 89% | 1015.4 hPa | 0 mm | - | 156 W/m² | - |
| 1778079781 | 11.11° C | 89% | 1015 hPa | 0 mm | - | 232 W/m² | - |
| 1778079478 | 11.11° C | 91% | 1015.1 hPa | 0 mm | - | 231 W/m² | - |
| 1778079174 | 10.56° C | 91% | 1014.8 hPa | 0 mm | - | 192 W/m² | - |
| 1778078872 | 10.56° C | 90% | 1015 hPa | 0 mm | - | 133 W/m² | - |
| 1778075846 | 10° C | 93% | 1014.1 hPa | 0 mm | - | 90 W/m² | - |
| 1778074027 | 10.56° C | 94% | 1013.9 hPa | 0 mm | - | 34 W/m² | - |
| 1778073117 | 10.56° C | 95% | 1013.4 hPa | 0 mm | - | 32 W/m² | - |
| 1778071907 | 10.56° C | 96% | 1012.7 hPa | 0 mm | - | 28 W/m² | - |
| 1778069790 | 10.56° C | 97% | 1012.4 hPa | 0 mm | - | 15 W/m² | - |
| 1778069486 | 10.56° C | 97% | 1012.4 hPa | 0 mm | - | 8 W/m² | - |
| 1778068580 | 10.56° C | 97% | 1012.2 hPa | 0 mm | - | 17 W/m² | - |
| 1778066159 | 10° C | 96% | 1012.3 hPa | 0 mm | - | 1 W/m² | - |
| 1778065856 | 10° C | 96% | 1012.1 hPa | 0 mm | - | 1 W/m² | - |
| 1778065251 | 10° C | 96% | 1011.8 hPa | 0 mm | - | 0 W/m² | - |
| 1778064947 | 10° C | 96% | 1012 hPa | 0 mm | - | 0 W/m² | - |
| 1778064644 | 10° C | 96% | 1012 hPa | 0 mm | - | 0 W/m² | - |
| 1778063737 | 10° C | 96% | 1011.9 hPa | 0 mm | - | 0 W/m² | - |
* Rain latest hour (hover to see other rain measurements)
** Current wind speed in m/s (hover to see current wind gust speed)